Home   Weather   Castle Rock   Past weeks
Flag for USA

Past Weather in Castle Rock, Colorado, USA — Yesterday and Last 2 Weeks

Now
59 °F

Clear.


Feels Like: 59 °F
Forecast: 88 / 54 °F
Wind: 5 mph from Southeast

Location: Centennial Airport

Current Time: Aug 18, 2019 at 5:01:45 am

Latest Report: Aug 18, 2019 at 3:53 am


Visibility: 10 mi

Pressure: 29.81 "Hg (23.80 "Hg at 1897m altitude)

Humidity: 49%

Dew Point: 40 °F

Location of Castle RockLocation

Past Weather in Castle Rock — Graph

°F

Castle Rock Temperature Yesterday

Maximum temperature yesterday: 87 °F (at 1:02 pm)
Minimum temperature yesterday: 64 °F (at 6:53 am)
Average temperature yesterday: 75 °F

High & Low Weather Summary for the Past Weeks

 TemperatureHumidityPressure
High95 °F (Aug 6, 3:53 pm)87% (Aug 8, 8:19 pm)30.28 "Hg (Aug 8, 8:19 pm)
Low59 °F (Aug 12, 5:53 am)10% (Aug 15, 2:53 pm)29.65 "Hg (Aug 17, 3:53 pm)
Average76 °F43%29.93 "Hg
* Reported Aug 3 3:53 am — Aug 18 3:53 am, Castle Rock. Weather by CustomWeather, © 2019

Note: Actual official high and low records may vary slightly from our data, if they occured in-between our weather recording intervals... More about our weather records

Advertising

Castle Rock Weather History for the Previous 24 Hours

Scroll right to see more
 ConditionsComfort  
Time TempWeatherWind HumidityBarometerVisibility
3:53 am
Sun, Aug 18
59 °FClear.5 mph49%29.81 "Hg10 mi
2:53 am67 °FPassing clouds.8 mph35%29.78 "Hg10 mi
1:53 am61 °FPassing clouds.8 mph46%29.79 "Hg10 mi
12:53 am64 °FPassing clouds.8 mph43%29.79 "Hg10 mi
11:53 pm
Sat, Aug 17
65 °FPassing clouds.9 mph47%29.80 "Hg10 mi
10:53 pm68 °FPassing clouds.7 mph39%29.79 "Hg10 mi
9:53 pm70 °FPassing clouds.7 mph37%29.79 "Hg10 mi
8:53 pm71 °FPassing clouds.12 mph35%29.75 "Hg10 mi
7:53 pm75 °FPartly cloudy.10 mph31%29.75 "Hg10 mi
6:53 pm77 °FBroken clouds.12 mph28%29.75 "Hg10 mi
5:53 pm80 °FScattered clouds.7 mph23%29.73 "Hg10 mi
4:53 pm82 °FPartly sunny.25 mph23%29.70 "Hg10 mi
3:53 pm87 °FBroken clouds.6 mph13%29.65 "Hg10 mi
2:53 pm87 °FScattered clouds.7 mph14%29.67 "Hg10 mi
1:53 pm85 °FPartly sunny.6 mph16%29.70 "Hg10 mi
1:02 pm87 °FPartly sunny.8 mph15%29.96 "Hg10 mi
12:26 pm81 °FBroken clouds.16 mph20%29.98 "Hg10 mi
12:11 pm82 °FPartly sunny.21 mph18%29.98 "Hg10 mi
11:53 am83 °FBroken clouds.10 mph19%29.73 "Hg10 mi
10:53 am84 °FScattered clouds.5 mph18%29.74 "Hg10 mi
9:53 am80 °FSunny.9 mph22%29.73 "Hg10 mi
8:53 am76 °FPassing clouds.7 mph29%29.74 "Hg10 mi
7:53 am70 °FPassing clouds.6 mph44%29.77 "Hg10 mi
6:53 am64 °FPassing clouds.6 mph52%29.76 "Hg10 mi
5:53 am65 °FPassing clouds.12 mph51%29.75 "Hg10 mi
Weather by CustomWeather, © 2019

See weather overview